When you browse on this site, cookies collect data to enhance your experience and personalize the content and advertising you see.
Visit our Privacy Policy to learn more. By continuing to use the site, you agree to this use of cookies and data.
  • In Hungary
  • List of Countries
  • For 7 days
  • Water Temperature
  • Satellite Maps
  • Weather Map
  • News
  • Weather Widgets
  • user-avatar
    Login

    Hourly Weather Pervomajskoe

    Today, 17 November, Saturday

    Time Temperature Precipitation Wind Pressure Humidity
    00:00 +2°C° 0.1 mm 8 mps 761 mmHg 83%
    01:00 +2°C° 0.1 mm 8 mps 762 mmHg 83%
    02:00 +2°C° 0 mm 8 mps 762 mmHg 82%
    03:00 +2°C° 0 mm 8 mps 762 mmHg 82%
    04:00 +1°C° 0 mm 8 mps 762 mmHg 83%
    05:00 +2°C° 0 mm 7 mps 762 mmHg 83%
    06:00 +2°C° 0 mm 7 mps 763 mmHg 83%
    07:00 +2°C° 0 mm 7 mps 763 mmHg 83%
    08:00 +2°C° 0 mm 7 mps 763 mmHg 82%
    09:00 +2°C° 0 mm 7 mps 763 mmHg 81%
    10:00 +3°C° 0 mm 7 mps 763 mmHg 79%
    11:00 +3°C° 0 mm 6 mps 763 mmHg 77%
    12:00 +3°C° 0 mm 6 mps 763 mmHg 76%
    13:00 +3°C° 0 mm 6 mps 763 mmHg 76%
    14:00 +3°C° 0 mm 6 mps 763 mmHg 76%
    15:00 +3°C° 0 mm 5 mps 764 mmHg 77%
    16:00 +2°C° 0 mm 5 mps 764 mmHg 79%
    17:00 +2°C° 0 mm 5 mps 764 mmHg 80%
    18:00 +2°C° 0 mm 5 mps 764 mmHg 81%
    19:00 +2°C° 0 mm 5 mps 764 mmHg 81%
    20:00 +3°C° 0 mm 4 mps 764 mmHg 81%
    21:00 +1°C° 0 mm 4 mps 764 mmHg 83%
    22:00 +1°C° 0 mm 4 mps 763 mmHg 85%
    23:00 +2°C° 0 mm 3 mps 763 mmHg 86%

    Tomorrow, 18 November, Sunday

    Time Temperature Precipitation Wind Pressure Humidity
    00:00 +2°C° 0 mm 3 mps 763 mmHg 87%
    01:00 +2°C° 0 mm 3 mps 763 mmHg 87%
    02:00 +2°C° 0 mm 3 mps 763 mmHg 87%
    03:00 +2°C° 0 mm 3 mps 763 mmHg 88%
    04:00 +2°C° 0 mm 3 mps 762 mmHg 88%
    05:00 +1°C° 0 mm 3 mps 762 mmHg 89%
    06:00 +2°C° 0 mm 3 mps 762 mmHg 87%
    07:00 +3°C° 0 mm 2 mps 762 mmHg 86%
    08:00 +3°C° 0 mm 2 mps 761 mmHg 84%
    09:00 +3°C° 0 mm 2 mps 761 mmHg 80%
    10:00 +4°C° 0 mm 2 mps 761 mmHg 77%
    11:00 +6°C° 0 mm 1 mps 761 mmHg 73%
    12:00 +6°C° 0 mm 1 mps 761 mmHg 71%
    13:00 +7°C° 0 mm 1 mps 760 mmHg 69%
    14:00 +7°C° 0 mm 1 mps 760 mmHg 67%
    15:00 +5°C° 0 mm 2 mps 760 mmHg 69%
    16:00 +5°C° 0 mm 2 mps 760 mmHg 72%
    17:00 +4°C° 0 mm 2 mps 759 mmHg 75%
    18:00 +4°C° 0 mm 2 mps 759 mmHg 78%
    19:00 +2°C° 0 mm 3 mps 759 mmHg 81%
    20:00 +2°C° 0 mm 3 mps 759 mmHg 83%
    21:00 +2°C° 0 mm 3 mps 759 mmHg 86%
    22:00 +2°C° 0 mm 3 mps 758 mmHg 88%
    23:00 0°C° 0 mm 4 mps 758 mmHg 91%

    Day after tomorrow, 19 November, Monday

    Time Temperature Precipitation Wind Pressure Humidity
    00:00 0°C° 0 mm 4 mps 758 mmHg 92%
    01:00 0°C° 0 mm 4 mps 758 mmHg 93%
    02:00 +1°C° 0 mm 4 mps 757 mmHg 94%
    03:00 +1°C° 0 mm 5 mps 757 mmHg 94%
    04:00 +1°C° 0 mm 5 mps 756 mmHg 93%
    05:00 +1°C° 0 mm 5 mps 756 mmHg 93%
    06:00 +2°C° 0 mm 6 mps 756 mmHg 89%
    07:00 +2°C° 0 mm 6 mps 756 mmHg 86%
    08:00 +3°C° 0 mm 7 mps 756 mmHg 82%
    09:00 +3°C° 0.4 mm 7 mps 755 mmHg 81%
    10:00 +2°C° 0.4 mm 8 mps 755 mmHg 79%
    11:00 +4°C° 0.4 mm 8 mps 755 mmHg 78%
    12:00 +4°C° 1.1 mm 8 mps 754 mmHg 81%
    13:00 +4°C° 1.1 mm 8 mps 754 mmHg 84%
    14:00 +3°C° 1.1 mm 9 mps 753 mmHg 87%
    15:00 +5°C° 1.1 mm 8 mps 753 mmHg 88%
    16:00 +5°C° 1.1 mm 8 mps 752 mmHg 89%
    17:00 +6°C° 1.1 mm 8 mps 752 mmHg 90%
    18:00 +6°C° 0.5 mm 8 mps 751 mmHg 90%
    19:00 +7°C° 0.5 mm 8 mps 751 mmHg 89%
    20:00 +9°C° 0.5 mm 8 mps 751 mmHg 89%
    21:00 +9°C° 0.1 mm 8 mps 750 mmHg 89%
    22:00 +10°C° 0.1 mm 8 mps 750 mmHg 89%
    23:00 +10°C° 0.1 mm 7 mps 750 mmHg 89%

    20 November, Tuesday

    Time Temperature Precipitation Wind Pressure Humidity
    00:00 +10°C° 0 mm 8 mps 750 mmHg 88%
    01:00 +10°C° 0 mm 8 mps 750 mmHg 87%
    02:00 +10°C° 0 mm 9 mps 750 mmHg 86%
    03:00 +10°C° 0.1 mm 9 mps 751 mmHg 87%
    04:00 +8°C° 0.1 mm 10 mps 751 mmHg 88%
    05:00 +8°C° 0.1 mm 10 mps 751 mmHg 88%
    06:00 +8°C° 0 mm 10 mps 752 mmHg 87%
    07:00 +7°C° 0 mm 9 mps 753 mmHg 86%
    08:00 +6°C° 0 mm 9 mps 754 mmHg 85%
    09:00 +6°C° 0 mm 9 mps 754 mmHg 84%
    10:00 +6°C° 0 mm 8 mps 755 mmHg 83%
    11:00 +5°C° 0 mm 8 mps 756 mmHg 82%
    12:00 +5°C° 0 mm 7 mps 756 mmHg 81%
    13:00 +5°C° 0 mm 7 mps 756 mmHg 79%
    14:00 +5°C° 0 mm 6 mps 757 mmHg 78%
    15:00 +6°C° 0 mm 5 mps 757 mmHg 78%
    16:00 +6°C° 0 mm 5 mps 757 mmHg 79%
    17:00 +5°C° 0 mm 4 mps 758 mmHg 80%
    18:00 +5°C° 0 mm 3 mps 758 mmHg 80%
    19:00 +5°C° 0 mm 3 mps 758 mmHg 80%
    20:00 +6°C° 0 mm 2 mps 758 mmHg 81%
    21:00 +6°C° 0 mm 2 mps 758 mmHg 82%
    22:00 +5°C° 0 mm 2 mps 758 mmHg 83%
    23:00 +6°C° 0 mm 1 mps 758 mmHg 84%

    21 November, Wednesday

    Time Temperature Precipitation Wind Pressure Humidity
    00:00 +5°C° 0 mm 2 mps 758 mmHg 84%
    01:00 +5°C° 0 mm 2 mps 758 mmHg 83%
    02:00 +5°C° 0 mm 2 mps 757 mmHg 83%
    03:00 +4°C° 0 mm 3 mps 757 mmHg 85%
    04:00 +3°C° 0 mm 3 mps 757 mmHg 87%
    05:00 +3°C° 0 mm 4 mps 757 mmHg 89%
    06:00 +3°C° 0 mm 4 mps 756 mmHg 88%
    07:00 +3°C° 0 mm 4 mps 756 mmHg 87%
    08:00 +3°C° 0 mm 4 mps 756 mmHg 87%
    09:00 +4°C° 0.1 mm 4 mps 756 mmHg 83%
    10:00 +5°C° 0.1 mm 4 mps 756 mmHg 80%
    11:00 +6°C° 0.1 mm 4 mps 756 mmHg 76%
    12:00 +6°C° 0.2 mm 4 mps 755 mmHg 77%
    13:00 +6°C° 0.2 mm 5 mps 755 mmHg 77%
    14:00 +6°C° 0.2 mm 5 mps 754 mmHg 78%
    15:00 +6°C° 0.1 mm 5 mps 754 mmHg 80%
    16:00 +5°C° 0.1 mm 5 mps 754 mmHg 82%
    17:00 +4°C° 0.1 mm 6 mps 754 mmHg 84%
    18:00 +4°C° 0.1 mm 6 mps 754 mmHg 85%
    19:00 +4°C° 0.1 mm 6 mps 754 mmHg 86%
    20:00 +4°C° 0.1 mm 6 mps 754 mmHg 86%
    21:00 +4°C° 0.4 mm 6 mps 754 mmHg 86%
    22:00 +4°C° 0.4 mm 7 mps 754 mmHg 87%
    23:00 +4°C° 0.4 mm 7 mps 754 mmHg 87%

    22 November, Thursday

    Time Temperature Precipitation Wind Pressure Humidity
    00:00 +4°C° 0.2 mm 7 mps 754 mmHg 86%
    01:00 +4°C° 0.2 mm 7 mps 754 mmHg 86%
    02:00 +4°C° 0.2 mm 7 mps 754 mmHg 86%
    03:00 +3°C° 0.1 mm 7 mps 754 mmHg 85%
    04:00 +3°C° 0.1 mm 7 mps 755 mmHg 85%
    05:00 +3°C° 0.1 mm 7 mps 755 mmHg 85%
    06:00 +3°C° 0 mm 7 mps 755 mmHg 84%
    07:00 +3°C° 0 mm 7 mps 756 mmHg 83%
    08:00 +2°C° 0 mm 7 mps 756 mmHg 83%
    09:00 +3°C° 0 mm 7 mps 757 mmHg 79%
    10:00 +3°C° 0 mm 7 mps 757 mmHg 76%
    11:00 +4°C° 0 mm 7 mps 757 mmHg 72%
    12:00 +4°C° 0 mm 7 mps 757 mmHg 70%
    13:00 +4°C° 0 mm 7 mps 757 mmHg 68%
    14:00 +4°C° 0 mm 7 mps 758 mmHg 65%
    15:00 +3°C° 0 mm 6 mps 758 mmHg 65%
    16:00 +2°C° 0 mm 6 mps 758 mmHg 65%
    17:00 +2°C° 0 mm 6 mps 759 mmHg 64%
    18:00 +1°C° 0 mm 6 mps 759 mmHg 65%
    19:00 +1°C° 0 mm 6 mps 759 mmHg 65%
    20:00 -1°C° 0 mm 6 mps 760 mmHg 65%
    21:00 -1°C° 0 mm 6 mps 760 mmHg 66%
    22:00 0°C° 0 mm 5 mps 760 mmHg 67%
    23:00 -1°C° 0 mm 5 mps 760 mmHg 69%
    Show more